{"data":{"norad_id":61747,"epoch":"2026-05-25T04:33:21.211776Z","epoch_age_seconds":51832,"freshness":"FRESH","line1":"1 61747U 24199N   26145.18982884  .00018502  00000+0  39796-3 0  9998","line2":"2 61747  97.3038  18.1975 0009206  16.1512 344.0029 15.44654046133818","mean_motion":15.44654046,"eccentricity":0.0009206,"inclination_deg":97.3038,"raan_deg":18.1975,"arg_perigee_deg":16.1512,"mean_anomaly_deg":344.0029,"bstar":0.00039796,"rev_number":13381,"period_min":93.224758238195,"perigee_km":426.12500366333,"apogee_km":438.66455477523,"semimajor_km":6810.5317792193,"source":"CELESTRAK","updated_at":"2026-05-25T13:38:02.533147Z"}}